Weather observations for the past three days for
Auburn-Lewiston
Imperial (Metric)
Date Time (edt) Wind (mph) Vis. (mi.) Weather Sky Cond. Temperature (ºF) Relative Humidity Wind Chill (°F) Heat Index (°F) Pressure Precipitation (in)
Air Dwpt 6 hour altimeter (in) sea level (mb) 1 hr 3 hr 6 hr
Max. Min.
04 01:56 NW 3 10.00 Overcast OVC004 63 63 64.9 62.1 100% 29.85 1011.3
04 00:56 SW 3 7.00 Mostly Cloudy BKN006 62.1 62.1 100% 0 0.0
03 23:56 Calm 10.00 Overcast OVC008 64 64 100% 0 0.0
03 22:56 N 3 10.00 Light Rain BKN008 BKN060 OVC075 63 63 100% 29.88 1012.4 0.01
03 21:56 SW 5 10.00 Light Rain FEW048 OVC065 64 64 100% 29.9 1013.1
03 20:56 Calm 10.00 Mostly Cloudy SCT070 BKN100 64 63 96% 29.89 1012.8
03 19:56 N 5 10.00 Overcast OVC016 64.9 63 66.9 64 93% 29.9 1013.1
03 18:56 NW 5 10.00 Overcast OVC014 66 63 90% 29.9 1013.1
03 17:56 Calm 10.00 Overcast OVC017 66 63 90% 29.9 1013.2
03 16:56 Calm 10.00 Mostly Cloudy FEW013 BKN020 BKN024 66 62.1 87% 29.9 1013.2
03 15:56 SE 3 10.00 Overcast OVC009 64.9 63 93% 29.91 1013.5
03 14:56 S 6 10.00 Overcast OVC009 64.9 63 93% 29.94 1014.3
03 13:56 S 3 10.00 Overcast OVC007 64 63 64 60.1 96% 29.95 1014.7
03 12:56 SE 7 9.00 Overcast OVC007 63 62.1 97% 29.95 1014.9
03 11:56 S 3 6.00 Fog/Mist OVC007 63 62.1 97% 29.98 1015.7
03 10:56 Calm 10.00 Overcast OVC007 62.1 61 96% 30 1016.4
03 09:56 S 3 10.00 Overcast OVC009 61 61 100% 30 1016.7
03 08:56 S 3 10.00 Overcast FEW009 BKN028 OVC037 61 60.1 97% 30.02 1017.0
03 07:56 Calm 7.00 Light Rain FEW009 SCT024 OVC032 61 61 61 60.1 100% 30.03 1017.7 0.03 0.15
03 06:56 S 3 10.00 Overcast OVC040 61 61 100% 0 0.0
03 05:56 SE 3 10.00 Light Rain NULL 61 61 100% 30.02 1017.2 0.09
03 04:56 Calm 10.00 Light Rain OVC004 60.1 60.1 100% 30.05 1018.1 0.03
03 03:56 Calm 10.00 Light Rain OVC004 61 61 100% 30.04 1017.7 0.01
03 02:56 Calm 7.00 Light Rain OVC004 60.1 60.1 100% 30.07 1018.9 0.02
03 01:56 Calm 10.00 Light Rain OVC004 60.1 60.1 61 60.1 100% 30.09 1019.5
03 00:56 Calm 10.00 Overcast OVC006 60.1 59 96% 30.11 1020.0
02 23:56 S 3 10.00 Mostly Cloudy FEW048 BKN060 60.1 59 96% 30.13 1020.9
02 22:56 S 5 10.00 Overcast FEW008 OVC060 60.1 59 96% 30.14 1021.0
02 21:56 S 6 10.00 Overcast BKN008 BKN055 OVC075 60.1 59 96% 30.14 1021.2
02 20:56 S 5 10.00 Overcast BKN008 OVC075 60.1 59 96% 30.15 1021.6
02 19:56 S 8 10.00 Mostly Cloudy FEW055 BKN075 62.1 57 71.1 62.1 84% 30.15 1021.5
02 18:56 S 8 10.00 Overcast BKN050 OVC070 64 57 78% 30.16 1021.8
02 17:56 S 6 10.00 Overcast OVC055 66.9 57 71% 30.16 1021.9
02 16:56 S 8 10.00 Overcast OVC055 66.9 55 66% 30.18 1022.5
02 15:56 S 9 10.00 Mostly Cloudy BKN060 69.1 55 61% 30.18 1022.5
02 14:56 S 8 10.00 Overcast OVC060 70 55.9 61% 30.2 1023.2
02 13:56 S 9 10.00 NULL NULL 71.1 57 72 63 61% 30.19 1023.0
02 12:56 SE 8 10.00 Mostly Cloudy BKN043 BKN065 72 54 53% 30.19 1022.8
02 11:56 Calm 10.00 Mostly Cloudy BKN065 70 54 57% 30.21 1023.7
02 10:56 SE 6 10.00 A Few Clouds FEW070 69.1 55 61% 30.22 1023.8
02 09:56 SE 5 10.00 Mostly Cloudy FEW048 BKN065 68 57 68% 30.21 1023.6
02 08:56 E 6 10.00 Overcast SCT014 OVC065 64.9 59 81% 30.21 1023.6
02 07:56 E 3 10.00 Mostly Cloudy FEW009 SCT014 BKN065 63 59 63 61 87% 30.22 1024.0
02 06:56 E 6 10.00 Overcast OVC006 61 61 100% 30.21 1023.4
02 05:56 SE 3 10.00 Overcast OVC008 62.1 60.1 93% 30.2 1023.1
02 04:56 E 3 10.00 Overcast OVC006 62.1 61 96% 30.2 1023.1
02 03:56 Calm 10.00 Overcast OVC006 62.1 61 96% 30.18 1022.5
02 02:56 E 3 10.00 Mostly Cloudy BKN006 62.1 61 96% 30.17 1022.1
02 01:56 Calm 10.00 Overcast OVC006 62.1 61 66 62.1 96% 30.17 1022.1
02 00:56 E 6 10.00 Overcast OVC006 62.1 62.1 100% 30.15 1021.4
01 23:56 Calm 10.00 Overcast SCT008 BKN014 OVC065 63 63 100% 30.14 1021.2
01 22:56 SE 3 10.00 Overcast OVC010 64 63 96% 30.12 1020.6
01 21:56 E 5 10.00 Overcast OVC014 64 62.1 93% 30.13 1020.7
01 20:56 SE 7 10.00 Overcast OVC014 64.9 62.1 90% 30.13 1020.8
01 19:56 SE 6 10.00 Mostly Cloudy BKN060 66 62.1 78.1 66 87% 30.1 1020.1
01 18:56 SE 7 10.00 Overcast SCT050 BKN060 OVC075 68 62.1 81% 30.1 1019.9
01 17:56 SE 6 10.00 Light Rain BKN024 OVC038 70 62.1 76% 30.09 1019.4
01 16:56 S 9 10.00 Overcast BKN038 BKN048 OVC070 73.9 62.1 67% 30.07 1018.8
01 15:56 S 12 10.00 Mostly Cloudy BKN060 73.9 59 60% 30.05 1018.4
01 14:56 N 3 10.00 Partly Cloudy SCT070 75.9 52 43% 78 30.07 1018.8
01 13:56 Calm 10.00 A Few Clouds FEW060 75 52 75.9 54 45% 78 30.06 1018.6
01 12:56 N 7 10.00 Partly Cloudy SCT070 73 53.1 50% 30.07 1018.8
01 11:56 NE 3 10.00 A Few Clouds FEW070 71.1 54 55% 30.08 1019.2
01 10:56 Vrbl 7 10.00 Fair CLR 68 54 61% 30.07 1019.0
01 09:56 N 9 10.00 Fair CLR 64 53.1 68% 30.09 1019.4
01 08:56 NW 3 10.00 Fair CLR 57.9 54 87% 30.1 1019.8
01 07:56 Calm 10.00 Fair CLR 54 52 54 46.9 93% 30.09 1019.5
01 06:56 Calm 10.00 Fair CLR 51.1 51.1 100% 30.08 1019.2
01 05:56 N 3 10.00 Fair CLR 50 50 100% 30.07 1018.9
01 04:56 Calm 10.00 Fair CLR 50 50 100% 30.07 1018.8
01 03:56 Calm 10.00 Fair CLR 50 50 100% 30.07 1018.7
01 02:56 Calm 10.00 Fair CLR 50 50 100% 30.08 1019.2
Date Time (edt) Wind (mph) Vis. (mi.) Weather Sky Cond. Air Dwpt Max. Min. Relative Humidity Wind Chill (°F) Heat Index (°F) altimeter (in) sea level (mb) 1 hr 3 hr 6 hr
6 hour
Temperature (ºF) Pressure Precipitation (in)